Lid_Strength_Index
10 10 9 10 10 10 11 11 15 13 13 12 11 11 10 9 9 9 9 9 8 8 7 6 5 4 4 3 3 3 4 4 4 4 4 5 5 7 8 9 10 11 11 12
12 9 9 10 10 10 10 10 11 11 12 9 9 9 10 9 8 9 8 8 7 6 5 5 4 4 3 3 3 3 4 4 4 4 5 6 7 8 8 9 11 11 12 12
15 10 10 14 11 10 9 9 9 11 9 9 9 9 8 7 8 8 6 6 6 5 5 4 3 3 3 2 2 3 3 4 4 4 6 7 8 9 10 10 11 11 11 12
15 11 19 10 7 7 8 8 7 7 8 7 7 6 5 4 6 5 4 4 3 3 3 3 2 2 1 1 1 2 3 3 4 4 6 7 8 9 10 11 11 12 13 13
15 14 11 10 9 9 9 10 7 7 6 6 6 6 6 4 3 4 4 3 3 2 2 2 2 1 1 2 1 2 2 2 3 4 6 7 9 10 11 12 12 13 13 14
12 16 18 10 7 6 7 12 6 6 6 6 5 9 7 4 3 3 3 3 3 2 2 2 1 1 2 2 2 2 2 2 2 4 7 9 10 11 12 12 13 13 13 13
13 15 12 7 6 5 13 11 5 5 5 5 7 6 5 5 4 3 3 2 2 2 2 2 1 1 2 2 3 4 5 7 9 9 10 11 12 12 12 13 13 13 13 13
12 14 16 6 6 10 7 5 5 5 5 5 4 5 5 3 3 3 3 3 2 2 2 2 1 2 2 6 7 7 9 10 10 11 11 12 12 12 12 13 13 13 14 13
10 11 6 5 6 4 4 5 5 5 4 4 4 5 5 4 3 3 3 3 2 2 2 2 2 2 4 8 8 10 10 11 11 12 12 12 12 12 12 12 13 13 14 14
9 7 7 5 4 4 4 4 4 4 4 4 4 4 4 4 3 3 3 3 2 2 3 3 3 5 6 9 10 11 12 12 12 12 12 11 11 11 12 12 13 13 13 14
8 7 6 5 5 4 4 3 4 3 4 4 4 4 4 4 3 3 3 2 2 3 3 4 6 7 8 9 10 10 11 11 11 11 11 11 11 11 11 11 11 12 12 11
11 6 6 6 4 4 4 4 4 4 4 3 3 4 3 3 3 3 3 2 3 3 4 6 7 8 8 8 9 10 11 10 10 10 11 11 11 11 11 11 10 10 10 10
6 4 4 4 4 3 4 4 3 4 3 4 3 3 3 3 3 3 3 3 3 3 5 7 8 9 8 8 8 9 9 9 10 10 10 11 11 12 14 13 12 12 11 11
4 5 7 6 6 4 3 3 3 3 3 3 3 3 3 3 3 7 7 6 5 5 7 8 9 9 8 7 8 9 9 10 9 9 9 10 10 11 11 12 13 14 13 12
6 5 5 5 4 4 4 4 4 4 3 3 3 3 3 3 4 7 8 8 8 9 9 9 9 10 9 9 9 9 9 9 9 10 9 9 9 10 10 11 12 13 13 13
6 5 6 6 5 6 6 5 5 5 4 3 3 3 3 3 5 7 8 8 9 9 9 9 10 10 9 9 9 9 9 10 9 9 9 10 10 11 11 10 10 11 12 12
8 8 8 8 8 8 7 6 5 4 4 4 3 3 3 3 6 8 9 9 8 9 9 9 10 9 9 9 9 9 9 9 10 9 10 10 10 10 10 10 11 11 11 10
6 7 7 8 8 9 8 7 6 4 4 3 4 7 7 8 8 9 9 9 9 10 10 10 10 10 10 9 9 9 9 9 9 10 10 9 10 10 10 11 11 11 10 12
8 8 8 8 8 9 9 7 6 5 6 7 8 8 8 8 8 8 9 10 10 12 12 11 11 10 10 10 9 9 9 9 10 10 9 10 10 10 10 10 10 11 10 12
8 8 8 8 8 8 8 7 7 5 6 7 8 8 9 9 9 10 10 10 9 10 11 11 10 10 10 10 10 9 9 9 9 9 10 10 10 10 10 11 11 10 10 10
8 8 9 9 9 8 8 7 8 9 9 9 9 9 10 10 10 9 10 11 11 10 10 10 10 10 10 9 8 8 8 8 9 10 10 10 10 10 10 10 10 10 10 10
9 9 9 10 9 8 9 8 8 8 9 9 9 9 10 10 10 9 10 9 10 10 9 9 8 9 9 10 8 8 9 9 9 9 10 10 10 10 10 11 10 10 10 10
9 9 9 10 11 10 9 9 9 9 9 10 10 9 9 10 9 10 10 9 9 10 8 8 10 10 10 7 8 8 9 9 9 10 10 10 10 10 10 10 10 10 10 10
9 9 9 9 9 9 11 11 10 9 9 9 9 9 8 9 8 7 7 9 10 10 8 9 10 11 9 9 9 9 10 10 10 10 10 10 10 10 10 10 11 10 10 11
9 9 8 9 10 10 10 10 10 10 10 9 10 9 7 7 7 7 8 9 11 9 9 11 11 11 9 9 9 10 10 10 10 10 10 10 10 10 10 10 11 11 11 11
9 9 8 8 8 9 9 8 8 7 8 9 9 8 7 6 7 8 9 10 10 9 9 11 11 10 9 9 10 10 10 10 10 10 10 10 10 10 11 11 12 12 12 12
8 9 8 8 7 8 8 8 8 8 8 8 8 8 8 8 8 9 10 10 9 9 10 11 11 10 10 10 10 10 10 10 10 10 10 10 10 11 11 12 12 12 13 14